TimePST,TemperatureF,Dew PointF,Humidity,Sea Level PressureIn,VisibilityMPH,Wind Direction,Wind SpeedMPH,Gust SpeedMPH,PrecipitationIn,Events,Conditions,WindDirDegrees,DateUTC
12:47 AM,53.1,50.0,89,30.11,7.0,Calm,Calm,-,N/A,,Clear,0,2012-11-27 08:47:00
1:47 AM,53.1,50.0,89,30.09,6.0,Calm,Calm,-,N/A,,Clear,0,2012-11-27 09:47:00
2:47 AM,52.0,48.9,89,30.10,6.0,Calm,Calm,-,N/A,,Clear,0,2012-11-27 10:47:00
3:47 AM,52.0,48.9,89,30.09,5.0,Calm,Calm,-,N/A,,Clear,0,2012-11-27 11:47:00
4:47 AM,51.1,48.0,89,30.11,5.0,Calm,Calm,-,N/A,,Clear,0,2012-11-27 12:47:00
5:26 AM,51.8,48.2,88,30.12,5.0,Calm,Calm,-,N/A,,Partly Cloudy,0,2012-11-27 13:26:00
5:47 AM,52.0,48.9,89,30.13,5.0,Calm,Calm,-,N/A,,Scattered Clouds,0,2012-11-27 13:47:00
5:50 AM,51.8,48.2,88,30.13,5.0,Calm,Calm,-,N/A,,Mostly Cloudy,0,2012-11-27 13:50:00
6:15 AM,53.6,48.2,82,30.14,5.0,Calm,Calm,-,N/A,,Overcast,0,2012-11-27 14:15:00
6:47 AM,53.1,50.0,89,30.15,4.0,Calm,Calm,-,N/A,,Mostly Cloudy,0,2012-11-27 14:47:00
6:51 AM,53.6,50.0,88,30.15,4.0,Calm,Calm,-,N/A,,Scattered Clouds,0,2012-11-27 14:51:00
7:47 AM,55.9,52.0,87,30.15,3.0,Calm,Calm,-,N/A,,Clear,0,2012-11-27 15:47:00
8:47 AM,57.9,52.0,81,30.16,4.0,Calm,Calm,-,N/A,,Haze,0,2012-11-27 16:47:00
9:47 AM,61.0,52.0,72,30.17,5.0,Calm,Calm,-,N/A,,Haze,0,2012-11-27 17:47:00
10:47 AM,64.0,52.0,65,30.14,5.0,Calm,Calm,-,N/A,,Haze,0,2012-11-27 18:47:00
11:47 AM,66.9,52.0,59,30.09,4.0,Calm,Calm,-,N/A,,Haze,0,2012-11-27 19:47:00
12:47 PM,69.1,51.1,53,30.06,5.0,Calm,Calm,-,N/A,,Haze,0,2012-11-27 20:47:00
1:47 PM,69.1,53.1,57,30.04,8.0,Calm,Calm,-,N/A,,Clear,0,2012-11-27 21:47:00
2:47 PM,62.1,53.1,72,30.06,10.0,West,4.6,-,N/A,,Clear,260,2012-11-27 22:47:00
3:47 PM,63.0,53.1,70,30.06,10.0,Variable,4.6,-,N/A,,Clear,0,2012-11-27 23:47:00
5:47 PM,59.0,52.0,78,30.06,6.0,Calm,Calm,-,N/A,,Haze,0,2012-11-28 01:47:00
6:47 PM,57.9,54.0,87,30.09,7.0,Calm,Calm,-,N/A,,Clear,0,2012-11-28 02:47:00
7:47 PM,57.0,53.1,87,30.10,9.0,Calm,Calm,-,N/A,,Clear,0,2012-11-28 03:47:00
8:38 PM,57.2,53.6,88,30.12,8.0,Calm,Calm,-,N/A,,Mostly Cloudy,0,2012-11-28 04:38:00
8:47 PM,57.0,53.1,87,30.12,9.0,Calm,Calm,-,N/A,,Mostly Cloudy,0,2012-11-28 04:47:00
9:47 PM,59.0,53.1,81,30.14,7.0,Calm,Calm,-,N/A,,Overcast,0,2012-11-28 05:47:00
10:47 PM,59.0,53.1,81,30.15,7.0,Calm,Calm,-,N/A,,Overcast,0,2012-11-28 06:47:00
11:23 PM,57.2,53.6,88,30.14,6.0,Calm,Calm,-,N/A,,Haze,0,2012-11-28 07:23:00
11:27 PM,57.2,53.6,88,30.14,6.0,Calm,Calm,-,N/A,,Haze,0,2012-11-28 07:27:00
11:47 PM,57.0,52.0,83,30.14,6.0,Calm,Calm,-,N/A,,Haze,0,2012-11-28 07:47:00